DateTimeUTC,F1_A11,F1_S11,BsB_S11,BsG_S11,BsR_S11,BbsB_S11,BbsG_S11,BbsR_S11,BaB_A11,BaG_A11,BaR_A11,Tu_S11,T_S11,Uu_S11,U_S11,P_S11,T1_A11
2021-01-25T07:00:00Z,00000200,21000000,,,,,,,-000.44,-000.07,-000.22,15.4,22.8,,00.0,0647.3,30.9
2021-01-25T07:01:00Z,00000200,21000000,,,,,,,-000.10,-000.43,-000.04,15.4,22.8,,00.0,0647.3,30.9
2021-01-25T07:02:00Z,00000200,21000000,,,,,,,-000.10,0000.46,0000.15,15.4,22.8,,00.0,0647.2,30.9
2021-01-25T07:03:00Z,00000200,61000000,,,,,,,0000.34,-000.69,-000.32,15.4,22.8,,00.0,0647.2,30.9
2021-01-25T07:04:00Z,00000200,41000000,0000.28,0000.42,-000.11,-000.03,-000.08,-000.23,-000.70,0000.26,-000.27,15.8,22.7,,00.0,0648.0,30.9
2021-01-25T07:05:00Z,00000200,01000000,0000.44,0000.24,-000.13,0000.35,-000.03,-000.16,0000.63,0000.39,0000.56,15.8,22.6,,00.0,0647.9,30.9
2021-01-25T07:06:00Z,00000200,01000000,0001.37,0000.41,0000.15,0000.74,-000.13,-000.03,0000.61,0000.13,0000.46,15.8,22.6,,00.0,0647.8,30.9
2021-01-25T07:07:00Z,00000200,01000000,0000.34,0000.53,0000.34,0000.04,-000.06,0000.11,0000.30,0000.64,-000.01,15.7,22.6,,00.0,0647.8,30.9
2021-01-25T07:08:00Z,00000200,01000000,0000.58,0000.28,-000.00,0000.18,-000.11,0000.04,0000.25,0000.53,0000.27,15.6,22.5,,00.0,0647.7,30.9
2021-01-25T07:09:00Z,00000200,01000000,0000.69,0000.36,0000.09,0000.15,-000.01,0000.10,0000.06,0000.12,0000.13,15.6,22.5,,00.0,0647.6,30.9
2021-01-25T07:10:00Z,00000200,01000000,0001.29,0000.29,0000.14,0000.56,-000.06,0000.05,0000.36,0000.12,0000.03,15.5,22.5,,00.0,0647.6,30.9
2021-01-25T07:11:00Z,00000200,01000000,0000.59,0000.38,0000.04,-000.02,-000.10,-000.12,0000.34,-000.32,0000.04,15.5,22.4,,00.0,0647.5,30.9
2021-01-25T07:12:00Z,00000200,01000000,0000.93,0000.27,0000.05,0000.28,0000.04,-000.01,0000.30,0000.39,0000.39,15.5,22.4,,00.0,0647.5,30.8
2021-01-25T07:13:00Z,00000200,01000000,0001.29,0000.03,0000.15,0000.11,-000.23,0000.00,0000.51,0000.46,0000.24,15.4,22.4,,00.0,0647.5,30.8
2021-01-25T07:14:00Z,00000200,01000000,0001.14,0000.23,0000.05,0000.65,0000.06,0000.02,0000.02,0000.21,0000.07,15.5,22.4,,00.0,0647.5,30.8
2021-01-25T07:15:00Z,00000200,01000000,0001.00,0000.21,0000.08,-000.02,0000.13,0000.20,0000.46,0000.07,-000.14,15.5,22.4,,00.0,0647.6,30.8
2021-01-25T07:16:00Z,00000200,01000000,0000.38,0000.41,0000.23,0000.16,0000.03,0000.15,0000.14,0000.31,0000.74,15.5,22.4,,00.0,0647.6,30.8
2021-01-25T07:17:00Z,00000200,01000000,0000.11,0000.20,0000.00,0000.19,-000.19,-000.05,0000.28,0000.16,-000.12,15.6,22.4,,00.0,0647.6,30.8
2021-01-25T07:18:00Z,00000200,01000000,0001.03,0000.35,0000.14,-000.02,0000.15,0000.18,0000.24,-000.06,0000.00,15.6,22.4,,00.0,0647.6,30.9
2021-01-25T07:19:00Z,00000200,01000000,0000.33,0000.37,0000.23,0000.37,-000.27,0000.03,0000.57,0000.90,0000.62,15.7,22.4,,00.0,0647.6,30.8
2021-01-25T07:20:00Z,00000200,01000000,0000.32,0000.49,-000.03,0000.10,-000.00,0000.06,0000.21,0000.51,-000.00,15.7,22.4,,00.0,0647.6,30.8
2021-01-25T07:21:00Z,00000200,01000000,0000.72,0000.50,0000.18,0000.10,-000.19,0000.22,0000.25,0000.04,0000.63,15.7,22.4,,00.0,0647.6,30.9
2021-01-25T07:22:00Z,00000200,01000000,0000.58,0000.54,0000.04,-000.10,-000.30,0000.04,0000.63,0000.27,0000.12,15.8,22.5,,00.0,0647.5,30.9
2021-01-25T07:23:00Z,00000200,01000000,0000.38,0000.45,0000.10,0000.47,-000.09,0000.05,-000.02,0000.38,-000.01,15.8,22.5,,00.0,0647.6,30.9
2021-01-25T07:24:00Z,00000200,01000000,0000.38,0000.37,0000.04,0000.22,-000.11,0000.14,0000.03,-000.00,-000.14,15.8,22.5,,00.0,0647.6,30.9
2021-01-25T07:25:00Z,00000200,01000000,0000.23,0000.26,0000.09,0000.43,0000.14,0000.04,0000.30,0000.26,0000.42,15.8,22.5,,00.0,0647.6,30.9
2021-01-25T07:26:00Z,00000200,01000000,0000.62,0000.02,-000.20,0000.18,0000.10,-000.21,-000.07,0000.12,0000.03,15.7,22.5,,00.0,0647.5,30.9
2021-01-25T07:27:00Z,00000200,01000000,0000.67,0000.32,0000.10,0000.18,0000.10,0000.27,0000.63,-000.06,0000.15,15.7,22.4,,00.0,0647.5,30.9
2021-01-25T07:28:00Z,00000200,01000000,0000.16,0000.47,-000.09,-000.14,-000.14,-000.26,0000.28,0000.70,0000.52,15.7,22.4,,00.0,0647.5,30.8
2021-01-25T07:29:00Z,00000200,01000000,0001.12,0000.30,-000.08,-000.02,-000.22,-000.05,0000.39,0000.43,-000.05,15.8,22.4,,00.0,0647.5,30.9
2021-01-25T07:30:00Z,00000200,01000000,0000.90,0000.49,0000.08,-000.01,-000.03,0000.05,0000.50,0000.16,0000.43,15.8,22.5,,00.0,0647.6,30.9
2021-01-25T07:31:00Z,00000200,01000000,0000.47,0000.15,0000.14,0000.45,0000.08,-000.04,0000.12,0000.45,0000.25,15.8,22.5,,00.0,0647.6,30.9
2021-01-25T07:32:00Z,00000200,01000000,0000.28,0000.11,-000.04,0000.06,-000.07,-000.09,0000.41,0000.05,-000.07,15.8,22.5,,00.0,0647.6,30.9
2021-01-25T07:33:00Z,00000200,01000000,0000.68,0000.20,-000.15,0000.26,0000.08,0000.13,0000.01,0000.21,0000.27,15.9,22.5,,00.0,0647.6,30.9
2021-01-25T07:34:00Z,00000200,01000000,-000.13,0000.11,0000.09,-000.14,0000.05,-000.22,-000.33,-000.25,-000.46,15.9,22.5,,00.0,0647.6,30.9
2021-01-25T07:35:00Z,00000200,01000000,0000.36,0000.54,0000.13,0000.11,0000.09,0000.23,-000.07,0000.35,0000.18,15.9,22.5,,00.0,0647.6,30.9
2021-01-25T07:36:00Z,00000200,01000000,0000.34,0000.30,0000.21,0000.46,-000.15,-000.09,0000.29,-000.06,0000.16,15.8,22.5,,00.0,0647.6,30.9
2021-01-25T07:37:00Z,00000200,01000000,0000.87,0000.30,0000.16,0000.17,-000.26,0000.21,0000.43,0000.06,-000.18,15.8,22.5,,00.0,0647.5,30.9
2021-01-25T07:38:00Z,00000200,01000000,0000.10,0000.14,0000.23,0000.21,-000.05,-000.06,-000.42,0000.03,0000.21,15.7,22.4,,00.0,0647.5,30.9
2021-01-25T07:39:00Z,00000200,01000000,0000.61,0000.47,0000.14,0000.26,0000.23,0000.08,-000.09,-000.14,-000.09,15.7,22.4,,00.0,0647.5,30.9
2021-01-25T07:40:00Z,00000200,01000000,0000.64,0000.27,0000.19,0000.29,-000.10,-000.07,-000.09,-000.05,-000.21,15.6,22.4,,00.0,0647.5,30.9
2021-01-25T07:41:00Z,00000200,01000000,-000.01,0000.50,0000.12,0000.15,0000.00,-000.09,-000.12,-000.82,-000.28,15.6,22.3,,00.0,0647.5,30.8
2021-01-25T07:42:00Z,00000200,01000000,0000.92,0000.06,-000.11,-000.08,-000.14,-000.14,0000.29,0000.41,0000.07,15.5,22.3,,00.0,0647.6,30.8
2021-01-25T07:43:00Z,00000200,01000000,-000.12,0000.36,0000.01,0000.70,-000.12,-000.00,0000.32,0000.28,0000.51,15.5,22.3,,00.0,0647.6,30.8
2021-01-25T07:44:00Z,00000200,01000000,0000.05,0000.30,-000.08,0000.19,-000.12,0000.10,-000.07,0000.14,0000.21,15.5,22.3,,00.0,0647.6,30.8
2021-01-25T07:45:00Z,00000200,01000000,0000.50,0000.23,-000.04,-000.15,-000.11,-000.10,0000.08,0000.23,0000.18,15.6,22.3,,00.0,0647.7,30.8
2021-01-25T07:46:00Z,00000200,01000000,0000.75,0000.30,0000.08,0000.28,-000.13,0000.01,0000.04,0000.22,0000.07,15.6,22.3,,00.0,0647.8,30.8
2021-01-25T07:47:00Z,00000200,01000000,0000.46,0000.31,-000.04,-000.26,-000.17,-000.13,-000.32,-000.46,-000.31,15.7,22.3,,00.0,0648.0,30.9
2021-01-25T07:48:00Z,00000200,01000000,0000.45,0000.51,-000.03,0000.09,0000.07,0000.00,-000.81,-000.85,-000.29,15.7,22.3,,00.0,0648.0,30.9
2021-01-25T07:49:00Z,00000200,01000000,0000.72,0000.13,0000.12,0000.63,0000.14,0000.08,0000.02,-000.00,-000.41,15.7,22.4,,00.0,0648.2,30.8
2021-01-25T07:50:00Z,00000200,01000000,0000.77,0000.36,-000.00,0000.16,0000.10,0000.07,-000.96,-000.52,-000.46,15.7,22.4,,00.0,0648.3,30.9
2021-01-25T07:51:00Z,00000200,01000000,0000.75,0000.40,0000.08,-000.10,-000.22,0000.01,-000.46,-000.50,-000.13,15.8,22.4,,00.0,0648.2,30.9
2021-01-25T07:52:00Z,00000200,01000000,0000.69,0000.25,0000.07,-000.06,0000.12,0000.09,0000.41,0000.21,0000.15,15.8,22.4,,00.0,0648.1,30.9
2021-01-25T07:53:00Z,00000200,01000000,0001.06,0000.27,0000.08,0000.50,-000.00,0000.11,0000.26,0000.57,0000.24,15.7,22.4,,00.0,0648.0,30.9
2021-01-25T07:54:00Z,00000200,01000000,0000.58,0000.39,0000.14,0000.14,0000.12,0000.20,0000.33,0000.38,0000.23,15.7,22.4,,00.0,0648.0,30.9
2021-01-25T07:55:00Z,00000200,01000000,-000.29,0000.08,0000.02,0000.74,-000.10,-000.05,0000.43,-000.06,0000.18,15.6,22.4,,00.0,0648.0,30.9
2021-01-25T07:56:00Z,00000200,01000000,0000.87,0000.18,0000.34,-000.20,-000.01,0000.05,-000.00,-000.21,0000.22,15.6,22.3,,00.0,0647.9,30.8
2021-01-25T07:57:00Z,00000200,41000000,,,,,,,0001.57,0001.76,0001.02,15.6,22.3,,00.0,0648.0,30.8
2021-01-25T07:58:00Z,00000200,61000000,,,,,,,-000.08,-000.07,-000.20,15.2,22.5,,00.0,0646.9,30.8
2021-01-25T07:59:00Z,00000200,21000000,,,,,,,-000.20,-000.10,0000.14,15.2,22.6,,00.0,0646.9,30.8
